STARLINK-36253, 68028

Orbit data source: Space-Track

STARLINK-36253, 68028 is a payload satellite owned by SpaceX/Seattle (US) in SSO that was launched on Sun, 01 Mar 2026 UTC via an FALCON 9 launch vehicle from the Air Force Western Test Range (AFWTR). Payload-class satellites include a variety of spacecraft equipped with specific instruments for various scientific and technological missions. These include communications satellites like Starlink; space stations such as the ISS; scientific satellites like the Hubble; Earth observation satellites from companies like Planet Labs, Umbra, and HawkEye 360; GPS; miniature CubeSats for education and research; and military/defense satellites.

Loading next visibility...
Identifier
68028, 2026-040P
Orbit
SSO
Country
Flag of USUS
Related business
Manufacturer
SpaceX/Seattle
Mission
Operational Commercial Communications
Bus & Motor
STARLINK V2MO, Unknown motor
Mass
575 kg wet, ~530 kg dry
Launch date (UTC)
2026-03-01 (4 months ago)
Launch vehicle
FALCON 9
Launch site
Air Force Western Test Range (AFWTR)
Object type
Payload
Rocket body
Debris
Shape & HBR
Box + 2 Pan, 17.7 m
Radar Cross Section
36.964 m², Large (>1 m²)

Expand to show TLE details & history
Last TLE update: 10 hours ago

TLE from 10 hours ago
0 STARLINK-36253
1 68028U 26040P   26171.42656750  .00057767  00000-0  17195-2 0  9995
2 68028  97.2825 119.0918 0002040 135.2996 224.8412 15.34506707 17143
Epoch: 2026-06-20T10:14Z
TLE epoch observation values (Epoch: 2026-06-20T10:14:15.432Z)
Latitude
-0.00006°
Longitude
56.88615°
Altitude
466.489 km
Speed
7.633 km/s
True Right ascension
07h 56m 22s
True Declination
0° 00' 00"
Sunlit
Object was in daylight at epoch
Visualization orbit readout
Latitude
Unknown
Longitude
Unknown
Altitude
Unknown
Speed
Unknown
Apparent Right ascension
Unknown
Apparent Declination
Unknown
Sunlit
N/A
Visualization observer readout
Local Sidereal Time
07:12:49
Azimuth
Unknown
Elevation
Unknown
Doppler factor
Unknown
Orbital elements
Apogee altitude
460.722 km
Perigee altitude
457.933 km
Semi-major axis
6,837.464 km
Eccentricity
0.0002
Inclination
97.2825°
RAAN
119.0918°
Arg. of periapsis
135.2996°
True anomaly
224.82472°
Mean anomaly
224.8412°
Eccentric anomaly
224.83296°
Mean motion
3.83884 °/min
Orbital period
93.78 mins
BSTAR
0.0017195
Loading maneuver chart data...
Computing Atmospheric mass density...
Loading historical data...
Loading historical data...
Loading historical data...
Loading historical data...
Loading historical data...
Loading historical data...
Loading historical data...

Documentation

Showing up to 5 results
|